Location: Exeidioux
(45.6312°N, 1.6819°E)
Time: 14:08:50
(UTC+00:00)

USA 307 - Pass Details

Date: 03 March 2021
Orbit: 567 x 577 km, 54.0° (Epoch: 15 April)

Event Time Altitude Azimuth Distance (km) Brightness Sun altitude
Rises 19:55:50 0° 296° (WNW) 2,785 7.8 -23.8°
Reaches altitude 10° 19:58:21 10° 308° (NW) 1,883 6.4 -24.2°
Enters shadow 20:02:01 28° 7° (N) 1,092 4.4 -24.8°
